HYPERVIEW 1G (RS66S)

Last updated on Sun Dec 07 2025 00:03:12 GMT+0000 (Coordinated Universal Time)

1 61772U 24199AP 25340.59974847 .00063301 00000+0 12397-2 0 9991 2 61772 97.3211 209.9600 0008089 265.8398 94.1928 15.47145404104665
UTC large
Height (km)
Speed (km/s)
/
Latitude / Longitude
Inclination (degrees)
Orbital Period (minutes)
Azimuth
Elevation
Range (km)
Doppler Factor

Next 0 passes for location: London (51.5072 / 0.1276)

Sorry there are no passes over London.